| time (UTC) | temp F | wind direction | speed MPH | gust MPH | rain 1hr in | rain 24hr in | rain mn in | humidity % | barometer mb |
| 20260508121556 | 42 | 214 | 2.0 | 4.0 | 0.00 | 0.00 | 0.00 | 75 | 1014.7 |
| 20260508121047 | 42 | 210 | 2.0 | 4.0 | 0.00 | 0.00 | 0.00 | 76 | 1014.6 |
| 20260508120550 | 42 | 205 | 2.0 | 4.0 | 0.00 | 0.00 | 0.00 | 76 | 1014.6 |
| 20260508120057 | 42 | 195 | 2.0 | 4.0 | 0.00 | 0.00 | 0.00 | 77 | 1014.5 |
| 20260508115546 | 41 | 193 | 2.0 | 4.0 | 0.00 | 0.00 | 0.00 | 77 | 1014.4 |
| 20260508115046 | 41 | 214 | 1.0 | 3.0 | 0.00 | 0.00 | 0.00 | 77 | 1014.4 |
| 20260508114552 | 41 | 250 | 0.0 | 3.0 | 0.00 | 0.00 | 0.00 | 76 | 1014.4 |
| 20260508114046 | 41 | 0 | 0.0 | 3.0 | 0.00 | 0.00 | 0.00 | 76 | 1014.3 |
| 20260508113547 | 41 | 0 | 0.0 | 0.0 | 0.00 | 0.00 | 0.00 | 76 | 1014.3 |
| 20260508113052 | 41 | 0 | 0.0 | 3.0 | 0.00 | 0.00 | 0.00 | 75 | 1014.3 |
| 20260508112548 | 42 | 0 | 0.0 | 3.0 | 0.00 | 0.00 | 0.00 | 73 | 1014.1 |
| 20260508112049 | 42 | 0 | 0.0 | 2.0 | 0.00 | 0.00 | 0.00 | 72 | 1014.2 |
| 20260508111601 | 42 | 0 | 0.0 | 2.0 | 0.00 | 0.00 | 0.00 | 72 | 1014.1 |
| 20260508111048 | 42 | 345 | 0.0 | 3.0 | 0.00 | 0.00 | 0.00 | 72 | 1013.7 |
| 20260508110546 | 41 | 0 | 1.0 | 4.0 | 0.00 | 0.00 | 0.00 | 73 | 1013.7 |
| 20260508110057 | 41 | 340 | 2.0 | 7.0 | 0.00 | 0.00 | 0.00 | 74 | 1013.7 |
| 20260508105547 | 41 | 341 | 3.0 | 7.0 | 0.00 | 0.00 | 0.00 | 73 | 1013.6 |
| 20260508105049 | 41 | 333 | 4.0 | 5.0 | 0.00 | 0.00 | 0.00 | 73 | 1013.5 |
| 20260508104553 | 41 | 324 | 2.0 | 5.0 | 0.00 | 0.00 | 0.00 | 73 | 1013.4 |
| 20260508104046 | 41 | 333 | 2.0 | 6.0 | 0.00 | 0.00 | 0.00 | 73 | 1013.4 |
| 20260508103548 | 41 | 336 | 3.0 | 7.0 | 0.00 | 0.00 | 0.00 | 73 | 1013.4 |
| 20260508103054 | 41 | 329 | 4.0 | 7.0 | 0.00 | 0.00 | 0.00 | 73 | 1013.4 |
| 20260508102548 | 41 | 341 | 5.0 | 7.0 | 0.00 | 0.00 | 0.00 | 73 | 1013.3 |
| 20260508102047 | 41 | 331 | 5.0 | 9.0 | 0.00 | 0.00 | 0.00 | 72 | 1013.3 |
| 20260508101554 | 41 | 344 | 4.0 | 9.0 | 0.00 | 0.00 | 0.00 | 71 | 1013.1 |
| 20260508101050 | 41 | 323 | 5.0 | 9.0 | 0.00 | 0.00 | 0.00 | 71 | 1013.1 |
| 20260508100550 | 41 | 319 | 5.0 | 9.0 | 0.00 | 0.00 | 0.00 | 71 | 1013.1 |
| 20260508100055 | 41 | 340 | 5.0 | 9.0 | 0.00 | 0.00 | 0.00 | 72 | 1013.0 |
| 20260508095553 | 41 | 331 | 5.0 | 9.0 | 0.00 | 0.00 | 0.00 | 72 | 1013.0 |
| 20260508095046 | 41 | 355 | 6.0 | 9.0 | 0.00 | 0.00 | 0.00 | 72 | 1013.0 |
| 20260508094606 | 41 | 338 | 5.0 | 9.0 | 0.00 | 0.00 | 0.00 | 72 | 1012.7 |
| 20260508094048 | 41 | 317 | 6.0 | 9.0 | 0.00 | 0.00 | 0.00 | 73 | 1012.7 |
| 20260508093548 | 41 | 349 | 6.0 | 9.0 | 0.00 | 0.00 | 0.00 | 73 | 1012.9 |
| 20260508093055 | 41 | 342 | 6.0 | 9.0 | 0.00 | 0.00 | 0.00 | 74 | 1012.8 |
| 20260508092547 | 41 | 345 | 7.0 | 10.0 | 0.00 | 0.00 | 0.00 | 74 | 1012.7 |
| 20260508092046 | 41 | 348 | 7.0 | 10.0 | 0.00 | 0.00 | 0.00 | 74 | 1012.6 |
| 20260508091600 | 41 | 342 | 7.0 | 10.0 | 0.00 | 0.00 | 0.00 | 75 | 1012.8 |
| 20260508091048 | 41 | 335 | 7.0 | 9.0 | 0.00 | 0.00 | 0.00 | 76 | 1012.9 |
| 20260508090547 | 41 | 336 | 7.0 | 9.0 | 0.00 | 0.00 | 0.00 | 76 | 1012.9 |
| 20260508090056 | 41 | 340 | 7.0 | 9.0 | 0.00 | 0.00 | 0.00 | 75 | 1012.8 |
| 20260508085548 | 41 | 339 | 6.0 | 8.0 | 0.00 | 0.02 | 0.00 | 75 | 1012.9 |
| 20260508085048 | 41 | 341 | 6.0 | 8.0 | 0.00 | 0.02 | 0.00 | 75 | 1013.0 |
| 20260508084557 | 41 | 338 | 5.0 | 10.0 | 0.00 | 0.02 | 0.00 | 75 | 1013.0 |
| 20260508084049 | 41 | 325 | 5.0 | 10.0 | 0.00 | 0.02 | 0.00 | 76 | 1013.0 |
| 20260508083549 | 41 | 346 | 6.0 | 10.0 | 0.00 | 0.02 | 0.00 | 76 | 1012.8 |
| 20260508083100 | 41 | 347 | 5.0 | 7.0 | 0.00 | 0.02 | 0.00 | 76 | 1012.9 |
| 20260508082550 | 41 | 344 | 4.0 | 7.0 | 0.00 | 0.02 | 0.00 | 76 | 1013.0 |
| 20260508082048 | 42 | 356 | 5.0 | 6.0 | 0.00 | 0.02 | 0.00 | 76 | 1012.9 |
| 20260508081627 | 42 | 356 | 4.0 | 7.0 | 0.00 | 0.02 | 0.00 | 75 | 1013.0 |
| 20260508081046 | 42 | 342 | 5.0 | 7.0 | 0.00 | 0.02 | 0.00 | 75 | 1012.9 |
| 20260508080552 | 42 | 344 | 4.0 | 7.0 | 0.00 | 0.02 | 0.00 | 75 | 1012.9 |
| 20260508080054 | 42 | 349 | 3.0 | 6.0 | 0.00 | 0.02 | 0.00 | 75 | 1012.9 |
| 20260508075546 | 42 | 353 | 4.0 | 6.0 | 0.00 | 0.02 | 0.00 | 75 | 1012.8 |
| 20260508075046 | 42 | 347 | 4.0 | 6.0 | 0.00 | 0.02 | 0.00 | 75 | 1012.8 |
| 20260508074556 | 42 | 347 | 4.0 | 7.0 | 0.00 | 0.02 | 0.00 | 75 | 1012.7 |
| 20260508074050 | 42 | 345 | 4.0 | 7.0 | 0.00 | 0.02 | 0.00 | 76 | 1012.7 |
| 20260508073548 | 43 | 340 | 4.0 | 6.0 | 0.00 | 0.02 | 0.00 | 76 | 1012.8 |
| 20260508073058 | 43 | 345 | 3.0 | 7.0 | 0.00 | 0.02 | 0.00 | 76 | 1012.8 |
| 20260508072548 | 43 | 347 | 4.0 | 7.0 | 0.00 | 0.02 | 0.00 | 76 | 1012.7 |
| 20260508072048 | 43 | 336 | 4.0 | 8.0 | 0.00 | 0.02 | 0.00 | 75 | 1012.7 |
| 20260508071557 | 43 | 333 | 5.0 | 8.0 | 0.00 | 0.02 | 0.00 | 75 | 1012.8 |
| 20260508071048 | 43 | 325 | 5.0 | 8.0 | 0.00 | 0.02 | 0.00 | 74 | 1012.6 |
| 20260508070547 | 43 | 335 | 6.0 | 10.0 | 0.00 | 0.02 | 0.00 | 73 | 1012.6 |
| 20260508070106 | 43 | 323 | 6.0 | 10.0 | 0.00 | 0.02 | 0.00 | 73 | 1012.6 |
| 20260508065547 | 43 | 324 | 6.0 | 11.0 | 0.00 | 0.02 | 0.00 | 74 | 1012.4 |
| 20260508065046 | 44 | 333 | 7.0 | 11.0 | 0.00 | 0.02 | 0.00 | 74 | 1012.6 |
| 20260508064558 | 44 | 340 | 7.0 | 12.0 | 0.00 | 0.02 | 0.00 | 74 | 1012.6 |
| 20260508064050 | 44 | 344 | 7.0 | 12.0 | 0.00 | 0.02 | 0.00 | 74 | 1012.7 |
| 20260508063548 | 44 | 336 | 7.0 | 12.0 | 0.00 | 0.02 | 0.00 | 75 | 1012.7 |
| 20260508063059 | 44 | 346 | 6.0 | 9.0 | 0.00 | 0.02 | 0.00 | 75 | 1012.7 |
| 20260508062546 | 44 | 339 | 5.0 | 7.0 | 0.00 | 0.02 | 0.00 | 75 | 1012.7 |
| 20260508062049 | 44 | 343 | 5.0 | 7.0 | 0.00 | 0.02 | 0.00 | 75 | 1012.7 |
| 20260508061557 | 44 | 352 | 4.0 | 7.0 | 0.00 | 0.02 | 0.00 | 74 | 1012.8 |
| 20260508061051 | 44 | 339 | 5.0 | 8.0 | 0.00 | 0.02 | 0.00 | 74 | 1012.8 |
| 20260508060549 | 44 | 349 | 6.0 | 8.0 | 0.00 | 0.02 | 0.00 | 74 | 1012.9 |
| 20260508060100 | 44 | 340 | 5.0 | 9.0 | 0.00 | 0.02 | 0.00 | 74 | 1013.1 |
| 20260508055549 | 45 | 354 | 5.0 | 11.0 | 0.00 | 0.02 | 0.00 | 74 | 1013.0 |
| 20260508055049 | 45 | 331 | 7.0 | 11.0 | 0.00 | 0.02 | 0.00 | 74 | 1013.0 |
| 20260508054559 | 45 | 338 | 7.0 | 11.0 | 0.00 | 0.02 | 0.00 | 74 | 1013.0 |
| 20260508054049 | 45 | 341 | 7.0 | 11.0 | 0.00 | 0.02 | 0.00 | 74 | 1012.9 |
| 20260508053549 | 45 | 325 | 7.0 | 11.0 | 0.00 | 0.02 | 0.00 | 75 | 1013.0 |
| 20260508053057 | 45 | 338 | 6.0 | 11.0 | 0.00 | 0.02 | 0.00 | 75 | 1013.0 |
| 20260508052548 | 45 | 338 | 6.0 | 11.0 | 0.00 | 0.02 | 0.00 | 75 | 1012.9 |
| 20260508052050 | 45 | 333 | 6.0 | 11.0 | 0.00 | 0.02 | 0.00 | 75 | 1012.7 |
| 20260508051553 | 45 | 345 | 7.0 | 12.0 | 0.00 | 0.02 | 0.00 | 75 | 1012.8 |
| 20260508051050 | 46 | 326 | 8.0 | 12.0 | 0.00 | 0.02 | 0.00 | 75 | 1012.7 |
| 20260508050551 | 46 | 324 | 7.0 | 14.0 | 0.00 | 0.02 | 0.00 | 76 | 1012.6 |
| 20260508050058 | 46 | 343 | 6.0 | 14.0 | 0.00 | 0.02 | 0.00 | 75 | 1012.6 |
| 20260508045548 | 46 | 345 | 8.0 | 13.0 | 0.00 | 0.02 | 0.00 | 74 | 1012.5 |
| 20260508045050 | 46 | 328 | 9.0 | 13.0 | 0.00 | 0.02 | 0.00 | 74 | 1012.5 |
| 20260508044603 | 47 | 342 | 10.0 | 16.0 | 0.00 | 0.02 | 0.00 | 74 | 1012.4 |
| 20260508044052 | 47 | 326 | 9.0 | 16.0 | 0.00 | 0.02 | 0.00 | 73 | 1012.3 |
| 20260508043552 | 47 | 326 | 9.0 | 16.0 | 0.00 | 0.02 | 0.00 | 72 | 1012.3 |
| 20260508043059 | 47 | 329 | 10.0 | 15.0 | 0.00 | 0.02 | 0.00 | 72 | 1012.1 |
| 20260508042548 | 47 | 332 | 11.0 | 16.0 | 0.00 | 0.02 | 0.00 | 72 | 1011.9 |
| 20260508042048 | 47 | 328 | 10.0 | 17.0 | 0.00 | 0.02 | 0.00 | 72 | 1011.9 |
| 20260508041557 | 47 | 331 | 12.0 | 19.0 | 0.00 | 0.02 | 0.00 | 72 | 1011.8 |
| 20260508041048 | 47 | 338 | 12.0 | 19.0 | 0.00 | 0.02 | 0.00 | 73 | 1011.7 |
| 20260508040547 | 47 | 334 | 13.0 | 19.0 | 0.00 | 0.02 | 0.00 | 73 | 1011.8 |
| 20260508040104 | 47 | 339 | 10.0 | 16.0 | 0.00 | 0.02 | 0.00 | 73 | 1011.9 |
| 20260508035549 | 47 | 331 | 10.0 | 17.0 | 0.00 | 0.03 | 0.02 | 73 | 1012.0 |
| 20260508035049 | 47 | 330 | 11.0 | 17.0 | 0.00 | 0.03 | 0.02 | 73 | 1011.8 |
| 20260508034558 | 48 | 333 | 11.0 | 20.0 | 0.00 | 0.03 | 0.02 | 73 | 1011.8 |
| 20260508034048 | 48 | 328 | 11.0 | 21.0 | 0.00 | 0.03 | 0.02 | 72 | 1011.7 |
| 20260508033545 | 48 | 332 | 12.0 | 23.0 | 0.00 | 0.03 | 0.02 | 72 | 1011.8 |
| 20260508033058 | 48 | 328 | 15.0 | 23.0 | 0.00 | 0.03 | 0.02 | 72 | 1011.7 |
| 20260508032549 | 48 | 335 | 11.0 | 22.0 | 0.00 | 0.03 | 0.02 | 73 | 1011.5 |
| 20260508032049 | 48 | 317 | 13.0 | 21.0 | 0.00 | 0.03 | 0.02 | 73 | 1011.3 |
| 20260508031551 | 48 | 333 | 10.0 | 19.0 | 0.00 | 0.03 | 0.02 | 73 | 1011.5 |
| 20260508031052 | 48 | 330 | 10.0 | 21.0 | 0.00 | 0.03 | 0.02 | 74 | 1011.7 |
| 20260508030548 | 48 | 333 | 11.0 | 21.0 | 0.00 | 0.03 | 0.02 | 73 | 1011.6 |
| 20260508025548 | 48 | 349 | 11.0 | 24.0 | 0.00 | 0.04 | 0.02 | 73 | 1011.4 |
| 20260508025046 | 49 | 333 | 13.0 | 24.0 | 0.00 | 0.04 | 0.02 | 73 | 1011.4 |
| 20260508024556 | 49 | 320 | 14.0 | 21.0 | 0.00 | 0.04 | 0.02 | 73 | 1011.2 |
| 20260508024047 | 49 | 342 | 10.0 | 18.0 | 0.00 | 0.04 | 0.02 | 73 | 1011.3 |
| 20260508023546 | 49 | 338 | 11.0 | 20.0 | 0.00 | 0.04 | 0.02 | 73 | 1011.1 |
| 20260508023050 | 49 | 332 | 11.0 | 20.0 | 0.00 | 0.04 | 0.02 | 73 | 1011.2 |
| 20260508022545 | 49 | 340 | 10.0 | 18.0 | 0.00 | 0.04 | 0.02 | 73 | 1011.0 |
| 20260508022048 | 49 | 349 | 10.0 | 23.0 | 0.00 | 0.04 | 0.02 | 74 | 1011.0 |
| 20260508021552 | 49 | 346 | 11.0 | 23.0 | 0.00 | 0.04 | 0.02 | 73 | 1011.0 |
| 20260508021048 | 49 | 340 | 13.0 | 23.0 | 0.00 | 0.04 | 0.02 | 73 | 1010.9 |
| 20260508020545 | 49 | 342 | 11.0 | 22.0 | 0.00 | 0.04 | 0.02 | 73 | 1010.9 |
| 20260508020053 | 49 | 342 | 11.0 | 20.0 | 0.00 | 0.04 | 0.02 | 73 | 1010.8 |
| 20260508015550 | 49 | 338 | 11.0 | 20.0 | 0.00 | 0.04 | 0.02 | 73 | 1010.7 |
| 20260508015048 | 49 | 357 | 12.0 | 25.0 | 0.00 | 0.04 | 0.02 | 73 | 1010.5 |
| 20260508014554 | 49 | 314 | 13.0 | 25.0 | 0.00 | 0.04 | 0.02 | 73 | 1010.6 |
| 20260508014049 | 49 | 320 | 13.0 | 23.0 | 0.00 | 0.04 | 0.02 | 73 | 1010.6 |
| 20260508013548 | 49 | 334 | 13.0 | 20.0 | 0.00 | 0.04 | 0.02 | 73 | 1010.5 |
| 20260508013052 | 49 | 335 | 11.0 | 20.0 | 0.00 | 0.04 | 0.02 | 73 | 1010.4 |
| 20260508012550 | 49 | 319 | 11.0 | 20.0 | 0.00 | 0.04 | 0.02 | 74 | 1010.3 |
| 20260508012048 | 49 | 314 | 10.0 | 18.0 | 0.00 | 0.04 | 0.02 | 74 | 1010.1 |
| 20260508011604 | 49 | 341 | 10.0 | 16.0 | 0.00 | 0.04 | 0.02 | 74 | 1010.1 |
| 20260508011049 | 49 | 333 | 9.0 | 16.0 | 0.00 | 0.04 | 0.02 | 74 | 1010.1 |
| 20260508010548 | 49 | 328 | 7.0 | 16.0 | 0.00 | 0.04 | 0.02 | 75 | 1009.9 |
| 20260508010052 | 49 | 332 | 9.0 | 16.0 | 0.00 | 0.04 | 0.02 | 74 | 1009.9 |
| 20260508005547 | 49 | 347 | 6.0 | 16.0 | 0.00 | 0.04 | 0.02 | 75 | 1009.8 |
| 20260508005050 | 49 | 352 | 6.0 | 14.0 | 0.00 | 0.04 | 0.02 | 75 | 1009.9 |
| 20260508004555 | 49 | 334 | 7.0 | 14.0 | 0.00 | 0.04 | 0.02 | 75 | 1009.7 |
| 20260508004046 | 49 | 358 | 5.0 | 11.0 | 0.00 | 0.04 | 0.02 | 75 | 1009.8 |
| 20260508003545 | 49 | 330 | 3.0 | 9.0 | 0.00 | 0.04 | 0.02 | 75 | 1010.0 |
| 20260508003050 | 49 | 332 | 4.0 | 12.0 | 0.00 | 0.04 | 0.02 | 74 | 1009.9 |
| 20260508002548 | 49 | 321 | 6.0 | 12.0 | 0.00 | 0.04 | 0.02 | 74 | 1010.0 |
| 20260508002048 | 49 | 331 | 7.0 | 12.0 | 0.00 | 0.04 | 0.02 | 74 | 1010.0 |
| 20260508001552 | 49 | 312 | 6.0 | 15.0 | 0.00 | 0.04 | 0.02 | 74 | 1010.0 |
| 20260508001048 | 50 | 331 | 5.0 | 15.0 | 0.00 | 0.04 | 0.02 | 73 | 1009.8 |
| 20260508000548 | 50 | 349 | 6.0 | 14.0 | 0.00 | 0.04 | 0.02 | 73 | 1010.0 |
| 20260508000057 | 50 | 303 | 7.0 | 14.0 | 0.00 | 0.04 | 0.02 | 72 | 1010.0 |
| 20260507235547 | 50 | 322 | 7.0 | 15.0 | 0.00 | 0.04 | 0.02 | 71 | 1009.9 |
| 20260507235048 | 51 | 321 | 8.0 | 15.0 | 0.00 | 0.04 | 0.02 | 71 | 1009.9 |
| 20260507234604 | 51 | 324 | 9.0 | 16.0 | 0.00 | 0.04 | 0.02 | 71 | 1009.9 |
| 20260507234046 | 51 | 297 | 6.0 | 16.0 | 0.00 | 0.04 | 0.02 | 70 | 1009.9 |
| 20260507233548 | 51 | 333 | 6.0 | 17.0 | 0.00 | 0.04 | 0.02 | 69 | 1010.0 |
| 20260507233055 | 52 | 325 | 10.0 | 17.0 | 0.00 | 0.04 | 0.02 | 69 | 1009.9 |
| 20260507232547 | 52 | 333 | 9.0 | 17.0 | 0.00 | 0.04 | 0.02 | 68 | 1010.0 |
| 20260507232048 | 52 | 318 | 9.0 | 18.0 | 0.00 | 0.04 | 0.02 | 67 | 1010.0 |
| 20260507231558 | 53 | 340 | 11.0 | 22.0 | 0.00 | 0.04 | 0.02 | 67 | 1009.8 |
| 20260507231047 | 53 | 336 | 11.0 | 30.0 | 0.00 | 0.04 | 0.02 | 67 | 1009.7 |
| 20260507230548 | 53 | 338 | 17.0 | 30.0 | 0.00 | 0.04 | 0.02 | 65 | 1009.6 |
| 20260507230058 | 53 | 335 | 14.0 | 25.0 | 0.00 | 0.04 | 0.02 | 65 | 1009.5 |
| 20260507225547 | 54 | 333 | 12.0 | 24.0 | 0.00 | 0.04 | 0.02 | 64 | 1009.5 |
| 20260507225046 | 54 | 338 | 15.0 | 24.0 | 0.00 | 0.04 | 0.02 | 64 | 1009.6 |
| 20260507224556 | 55 | 343 | 9.0 | 21.0 | 0.00 | 0.04 | 0.02 | 63 | 1009.5 |
| 20260507224048 | 55 | 352 | 7.0 | 18.0 | 0.00 | 0.04 | 0.02 | 64 | 1009.5 |
| 20260507223550 | 55 | 349 | 4.0 | 18.0 | 0.00 | 0.04 | 0.02 | 66 | 1009.7 |
| 20260507223100 | 55 | 345 | 10.0 | 18.0 | 0.00 | 0.04 | 0.02 | 66 | 1009.6 |
| 20260507222548 | 55 | 360 | 7.0 | 13.0 | 0.00 | 0.04 | 0.02 | 68 | 1009.6 |
| 20260507222048 | 55 | 317 | 7.0 | 16.0 | 0.00 | 0.04 | 0.02 | 69 | 1009.6 |
| 20260507221557 | 55 | 305 | 8.0 | 19.0 | 0.00 | 0.04 | 0.02 | 69 | 1009.6 |
| 20260507221050 | 55 | 7 | 11.0 | 19.0 | 0.00 | 0.04 | 0.02 | 69 | 1009.6 |
| 20260507220548 | 55 | 347 | 12.0 | 19.0 | 0.00 | 0.04 | 0.02 | 71 | 1009.4 |
| 20260507220053 | 55 | 318 | 11.0 | 20.0 | 0.00 | 0.04 | 0.02 | 71 | 1009.3 |
| 20260507215549 | 54 | 333 | 6.0 | 20.0 | 0.00 | 0.04 | 0.02 | 73 | 1009.3 |
| 20260507215048 | 55 | 328 | 6.0 | 16.0 | 0.00 | 0.04 | 0.02 | 71 | 1009.2 |
| 20260507214600 | 56 | 328 | 7.0 | 16.0 | 0.00 | 0.04 | 0.02 | 72 | 1009.3 |
| 20260507214047 | 56 | 338 | 8.0 | 15.0 | 0.00 | 0.04 | 0.02 | 71 | 1009.2 |
| 20260507213548 | 55 | 338 | 8.0 | 14.0 | 0.00 | 0.04 | 0.02 | 71 | 1009.2 |
| 20260507213051 | 56 | 236 | 6.0 | 13.0 | 0.00 | 0.04 | 0.02 | 71 | 1009.2 |
| 20260507212548 | 56 | 309 | 5.0 | 13.0 | 0.00 | 0.04 | 0.02 | 73 | 1009.0 |
| 20260507212047 | 55 | 333 | 7.0 | 16.0 | 0.00 | 0.04 | 0.02 | 74 | 1009.0 |
| 20260507211555 | 54 | 347 | 8.0 | 19.0 | 0.00 | 0.04 | 0.02 | 76 | 1009.1 |
| 20260507211048 | 53 | 320 | 13.0 | 22.0 | 0.00 | 0.04 | 0.02 | 77 | 1009.0 |
| 20260507210548 | 54 | 311 | 13.0 | 22.0 | 0.00 | 0.04 | 0.02 | 75 | 1009.0 |
| 20260507210057 | 54 | 309 | 11.0 | 22.0 | 0.00 | 0.04 | 0.02 | 75 | 1008.9 |
| 20260507205549 | 55 | 249 | 7.0 | 24.0 | 0.00 | 0.04 | 0.02 | 75 | 1008.8 |
| 20260507205054 | 55 | 330 | 8.0 | 24.0 | 0.00 | 0.04 | 0.02 | 74 | 1008.7 |
| 20260507204605 | 55 | 327 | 14.0 | 21.0 | 0.00 | 0.04 | 0.02 | 75 | 1008.6 |
| 20260507204048 | 56 | 334 | 9.0 | 19.0 | 0.00 | 0.04 | 0.02 | 74 | 1008.5 |
| 20260507203548 | 57 | 326 | 10.0 | 20.0 | 0.00 | 0.04 | 0.02 | 74 | 1008.4 |
| 20260507203107 | 56 | 324 | 7.0 | 25.0 | 0.00 | 0.04 | 0.02 | 77 | 1008.4 |
| 20260507202547 | 55 | 334 | 9.0 | 25.0 | 0.00 | 0.04 | 0.02 | 77 | 1008.3 |
| 20260507202047 | 55 | 328 | 10.0 | 22.0 | 0.00 | 0.04 | 0.02 | 77 | 1008.5 |
| 20260507201604 | 55 | 333 | 12.0 | 22.0 | 0.00 | 0.04 | 0.02 | 77 | 1008.2 |
| 20260507201048 | 55 | 342 | 14.0 | 21.0 | 0.00 | 0.04 | 0.02 | 78 | 1008.2 |
| 20260507200548 | 55 | 332 | 10.0 | 18.0 | 0.00 | 0.04 | 0.02 | 78 | 1008.2 |
| 20260507200058 | 54 | 315 | 8.0 | 16.0 | 0.00 | 0.04 | 0.02 | 79 | 1008.3 |
| 20260507195550 | 54 | 328 | 9.0 | 15.0 | 0.00 | 0.04 | 0.02 | 81 | 1008.3 |
| 20260507195048 | 54 | 356 | 5.0 | 16.0 | 0.00 | 0.04 | 0.02 | 82 | 1008.5 |
| 20260507194554 | 54 | 348 | 7.0 | 16.0 | 0.00 | 0.04 | 0.02 | 81 | 1008.6 |
| 20260507194048 | 54 | 318 | 11.0 | 16.0 | 0.00 | 0.04 | 0.02 | 80 | 1008.6 |
| 20260507193548 | 54 | 340 | 7.0 | 11.0 | 0.00 | 0.04 | 0.02 | 81 | 1008.6 |
| 20260507193059 | 54 | 345 | 3.0 | 17.0 | 0.00 | 0.04 | 0.02 | 82 | 1008.7 |
| 20260507192547 | 54 | 327 | 8.0 | 18.0 | 0.00 | 0.04 | 0.02 | 82 | 1008.7 |
| 20260507192048 | 54 | 314 | 11.0 | 18.0 | 0.00 | 0.04 | 0.02 | 81 | 1008.8 |
| 20260507191554 | 54 | 9 | 11.0 | 18.0 | 0.00 | 0.04 | 0.02 | 81 | 1008.9 |
| 20260507191047 | 55 | 335 | 9.0 | 14.0 | 0.00 | 0.04 | 0.02 | 81 | 1008.9 |
| 20260507190547 | 55 | 339 | 8.0 | 16.0 | 0.00 | 0.04 | 0.02 | 81 | 1008.8 |
| 20260507190055 | 55 | 358 | 10.0 | 16.0 | 0.00 | 0.04 | 0.02 | 81 | 1008.8 |
| 20260507185547 | 55 | 352 | 8.0 | 16.0 | 0.00 | 0.04 | 0.02 | 83 | 1009.1 |
| 20260507185051 | 54 | 347 | 11.0 | 17.0 | 0.00 | 0.04 | 0.02 | 83 | 1008.9 |
| 20260507184557 | 53 | 325 | 11.0 | 17.0 | 0.00 | 0.04 | 0.02 | 84 | 1009.0 |
| 20260507184047 | 53 | 349 | 9.0 | 17.0 | 0.00 | 0.04 | 0.02 | 85 | 1009.0 |
| 20260507183547 | 53 | 349 | 9.0 | 15.0 | 0.00 | 0.04 | 0.02 | 86 | 1009.1 |
| 20260507183100 | 52 | 340 | 9.0 | 15.0 | 0.00 | 0.04 | 0.02 | 85 | 1009.1 |
| 20260507182547 | 53 | 336 | 9.0 | 16.0 | 0.00 | 0.04 | 0.02 | 85 | 1009.1 |
| 20260507182047 | 53 | 341 | 10.0 | 16.0 | 0.00 | 0.04 | 0.02 | 86 | 1009.0 |
| 20260507181553 | 52 | 342 | 11.0 | 16.0 | 0.00 | 0.04 | 0.02 | 85 | 1008.9 |
| 20260507181047 | 53 | 327 | 9.0 | 15.0 | 0.00 | 0.04 | 0.02 | 85 | 1009.2 |
| 20260507180550 | 53 | 326 | 7.0 | 11.0 | 0.00 | 0.04 | 0.02 | 86 | 1009.2 |
| 20260507180057 | 53 | 330 | 6.0 | 11.0 | 0.00 | 0.04 | 0.02 | 86 | 1009.2 |
| 20260507175546 | 53 | 342 | 6.0 | 10.0 | 0.00 | 0.05 | 0.02 | 86 | 1009.2 |
| 20260507175049 | 53 | 2 | 4.0 | 11.0 | 0.00 | 0.05 | 0.02 | 87 | 1009.1 |
| 20260507174604 | 52 | 337 | 5.0 | 12.0 | 0.00 | 0.05 | 0.02 | 88 | 1009.0 |
| 20260507174047 | 52 | 346 | 5.0 | 12.0 | 0.00 | 0.05 | 0.02 | 87 | 1009.0 |
| 20260507173547 | 52 | 356 | 4.0 | 12.0 | 0.00 | 0.05 | 0.02 | 87 | 1008.9 |
| 20260507173100 | 52 | 359 | 6.0 | 8.0 | 0.00 | 0.05 | 0.02 | 88 | 1009.1 |
| 20260507172549 | 52 | 19 | 3.0 | 8.0 | 0.00 | 0.05 | 0.02 | 89 | 1009.2 |
| 20260507172048 | 52 | 356 | 4.0 | 9.0 | 0.00 | 0.05 | 0.02 | 89 | 1009.2 |
| 20260507171614 | 52 | 6 | 5.0 | 9.0 | 0.00 | 0.05 | 0.02 | 88 | 1009.1 |
| 20260507171049 | 52 | 332 | 5.0 | 8.0 | 0.00 | 0.05 | 0.02 | 90 | 1009.1 |
| 20260507170547 | 51 | 352 | 2.0 | 7.0 | 0.00 | 0.05 | 0.02 | 90 | 1009.2 |
| 20260507170057 | 51 | 356 | 4.0 | 8.0 | 0.00 | 0.05 | 0.02 | 90 | 1009.1 |
| 20260507165548 | 51 | 6 | 3.0 | 8.0 | 0.00 | 0.05 | 0.02 | 91 | 1009.2 |
| 20260507165047 | 50 | 345 | 5.0 | 9.0 | 0.00 | 0.05 | 0.02 | 91 | 1009.2 |
| 20260507164606 | 50 | 6 | 6.0 | 11.0 | 0.00 | 0.05 | 0.02 | 91 | 1009.5 |
| 20260507164048 | 50 | 354 | 7.0 | 11.0 | 0.00 | 0.05 | 0.02 | 91 | 1009.6 |
| 20260507163547 | 50 | 350 | 7.0 | 13.0 | 0.00 | 0.05 | 0.02 | 92 | 1009.4 |
| 20260507163055 | 50 | 343 | 8.0 | 13.0 | 0.00 | 0.05 | 0.02 | 92 | 1009.5 |
| 20260507162546 | 50 | 338 | 8.0 | 12.0 | 0.00 | 0.05 | 0.02 | 92 | 1009.5 |
| 20260507162047 | 51 | 345 | 7.0 | 12.0 | 0.00 | 0.05 | 0.02 | 92 | 1009.4 |
| 20260507161604 | 51 | 339 | 5.0 | 10.0 | 0.00 | 0.05 | 0.02 | 93 | 1009.4 |
| 20260507161047 | 51 | 359 | 3.0 | 9.0 | 0.00 | 0.05 | 0.02 | 93 | 1009.5 |
| 20260507160548 | 51 | 357 | 4.0 | 9.0 | 0.00 | 0.05 | 0.02 | 93 | 1009.5 |
| 20260507160059 | 51 | 8 | 5.0 | 8.0 | 0.00 | 0.05 | 0.02 | 93 | 1009.5 |
| 20260507155546 | 51 | 2 | 4.0 | 11.0 | 0.00 | 0.05 | 0.02 | 93 | 1009.5 |
| 20260507155047 | 51 | 11 | 6.0 | 11.0 | 0.00 | 0.05 | 0.02 | 93 | 1009.5 |
| 20260507154554 | 51 | 353 | 4.0 | 9.0 | 0.00 | 0.05 | 0.02 | 94 | 1009.5 |
| 20260507154047 | 51 | 6 | 5.0 | 9.0 | 0.00 | 0.05 | 0.02 | 93 | 1009.5 |
| 20260507153546 | 51 | 1 | 5.0 | 9.0 | 0.00 | 0.05 | 0.02 | 93 | 1009.6 |
| 20260507153050 | 51 | 15 | 6.0 | 9.0 | 0.00 | 0.05 | 0.02 | 93 | 1009.5 |
| 20260507152544 | 51 | 8 | 4.0 | 10.0 | 0.00 | 0.05 | 0.02 | 93 | 1009.5 |
| 20260507152049 | 52 | 4 | 7.0 | 10.0 | 0.00 | 0.05 | 0.02 | 93 | 1009.6 |
| 20260507151556 | 52 | 6 | 5.0 | 10.0 | 0.00 | 0.05 | 0.02 | 93 | 1009.6 |
| 20260507151049 | 52 | 356 | 4.0 | 10.0 | 0.00 | 0.05 | 0.02 | 92 | 1009.5 |
| 20260507150547 | 52 | 6 | 5.0 | 10.0 | 0.00 | 0.05 | 0.02 | 92 | 1009.7 |
| 20260507145546 | 53 | 14 | 3.0 | 7.0 | 0.00 | 0.05 | 0.02 | 93 | 1009.5 |
| 20260507145046 | 53 | 4 | 4.0 | 7.0 | 0.00 | 0.05 | 0.02 | 93 | 1009.6 |
| 20260507144552 | 53 | 10 | 4.0 | 7.0 | 0.00 | 0.05 | 0.02 | 94 | 1009.4 |
| 20260507144047 | 53 | 11 | 1.0 | 5.0 | 0.00 | 0.05 | 0.02 | 94 | 1009.4 |
| 20260507143546 | 53 | 3 | 2.0 | 5.0 | 0.00 | 0.05 | 0.02 | 93 | 1009.4 |
| 20260507143103 | 52 | 17 | 2.0 | 5.0 | 0.00 | 0.05 | 0.02 | 93 | 1009.5 |
| 20260507142550 | 53 | 13 | 2.0 | 6.0 | 0.00 | 0.05 | 0.02 | 93 | 1009.4 |
| 20260507142047 | 53 | 15 | 3.0 | 6.0 | 0.00 | 0.05 | 0.02 | 93 | 1009.2 |
| 20260507141602 | 53 | 8 | 1.0 | 5.0 | 0.00 | 0.05 | 0.02 | 93 | 1009.3 |
| 20260507141049 | 53 | 1 | 2.0 | 5.0 | 0.00 | 0.05 | 0.02 | 93 | 1009.5 |
| 20260507140548 | 53 | 3 | 2.0 | 7.0 | 0.00 | 0.05 | 0.02 | 94 | 1009.3 |
| 20260507140059 | 52 | 356 | 4.0 | 10.0 | 0.00 | 0.05 | 0.02 | 94 | 1009.3 |
| 20260507135546 | 52 | 8 | 3.0 | 10.0 | 0.00 | 0.10 | 0.02 | 94 | 1009.3 |
| 20260507135047 | 53 | 342 | 5.0 | 10.0 | 0.00 | 0.10 | 0.02 | 94 | 1009.5 |
| 20260507134558 | 53 | 13 | 3.0 | 10.0 | 0.00 | 0.10 | 0.02 | 94 | 1009.4 |
| 20260507134046 | 52 | 347 | 2.0 | 9.0 | 0.00 | 0.10 | 0.02 | 94 | 1009.5 |
| 20260507133547 | 52 | 16 | 2.0 | 6.0 | 0.00 | 0.10 | 0.02 | 94 | 1009.4 |
| 20260507133059 | 52 | 23 | 2.0 | 7.0 | 0.00 | 0.10 | 0.02 | 94 | 1009.2 |
| 20260507132545 | 53 | 11 | 4.0 | 7.0 | 0.00 | 0.10 | 0.02 | 94 | 1009.1 |
| 20260507132050 | 53 | 8 | 4.0 | 6.0 | 0.00 | 0.10 | 0.02 | 94 | 1009.0 |
| 20260507131607 | 53 | 12 | 3.0 | 6.0 | 0.00 | 0.10 | 0.02 | 94 | 1009.3 |
| 20260507131051 | 53 | 8 | 2.0 | 6.0 | 0.00 | 0.10 | 0.02 | 95 | 1009.5 |
| 20260507130550 | 53 | 8 | 2.0 | 4.0 | 0.00 | 0.10 | 0.02 | 96 | 1009.6 |
| 20260507130057 | 53 | 13 | 2.0 | 4.0 | 0.00 | 0.10 | 0.02 | 95 | 1009.3 |
| 20260507125547 | 53 | 7 | 1.0 | 3.0 | 0.00 | 0.14 | 0.02 | 96 | 1009.5 |
| 20260507125049 | 52 | 7 | 1.0 | 3.0 | 0.00 | 0.14 | 0.02 | 96 | 1009.3 |
| 20260507124556 | 52 | 359 | 0.0 | 4.0 | 0.00 | 0.14 | 0.02 | 96 | 1009.6 |
| 20260507124051 | 52 | 359 | 1.0 | 4.0 | 0.00 | 0.14 | 0.02 | 96 | 1009.8 |
| 20260507123547 | 52 | 359 | 2.0 | 4.0 | 0.00 | 0.14 | 0.02 | 96 | 1010.2 |
| 20260507123100 | 52 | 358 | 2.0 | 4.0 | 0.00 | 0.14 | 0.02 | 96 | 1010.1 |
| 20260507122549 | 52 | 22 | 1.0 | 5.0 | 0.00 | 0.14 | 0.02 | 96 | 1009.8 |
| 20260507122048 | 52 | 359 | 2.0 | 6.0 | 0.00 | 0.14 | 0.02 | 96 | 1010.0 |